Regional Weather Roundup
Issued by NWS

Home | Current Version | Previous Version | Graphics & Text | Print | Product List | Glossary On
Versions: 1 2 3 4 5 6 7 8 9 10 11 12 13 14 15 16 17 18 19 20 21 22 23 24 25 26 27 28 29 30 31 32 33 34 35 36 37 38 39 40 41 42 43 44 45 46 47 48 49 50
722
ASUS45 KPSR 291810
RWRAZ

ARIZONA HOURLY REGIONAL WEATHER ROUNDUP
NATIONAL WEATHER SERVICE PHOENIX AZ
1100 AM MST FRI APR 29 2016

NOTE: FAIR INDICATES FEW OR NO CLOUDS BELOW 12,000 FEET WITH NO
SIGNIFICANT WEATHER AND/OR OBSTRUCTIONS TO VISIBILITY.

AZZ001>003-036-291900-
NORTHWEST ARIZONA

CITY           SKY/WX    TMP DP  RH WIND       PRES   REMARKS
BULLHEAD CITY  SUNNY     72  45  37 NW5       29.92F
KINGMAN        SUNNY     61  43  51 VRB3      29.95F
6HR MIN TEMP:  42; 6HR MAX TEMP:  61;

$$

AZZ004>008-015-016-018-291900-
NORTH CENTRAL ARIZONA

CITY           SKY/WX    TMP DP  RH WIND       PRES   REMARKS
GRAND CANYON   PTSUNNY   46  37  71 W7        29.97R
6HR MIN TEMP:  37; 6HR MAX TEMP:  46; 6HR PCP:  0.03;

WILLIAMS       PTSUNNY   48  36  61 W12       30.05S
PRESCOTT       PTSUNNY   56  35  45 VRB5      29.95F
6HR MIN TEMP:  41; 6HR MAX TEMP:  56;

FLAGSTAFF      PTSUNNY   44  33  65 W8G20     29.97R
6HR MIN TEMP:  34; 6HR MAX TEMP:  47; 6HR PCP:  0.03;

PAYSON         CLOUDY    55  34  44 SW9G18    29.98S
PAGE           PTSUNNY   56  38  50 MISG      29.87F
6HR MIN TEMP:  46; 6HR MAX TEMP:  57;

$$

AZZ009>014-017-291900-
NORTHEAST ARIZONA

CITY           SKY/WX    TMP DP  RH WIND       PRES   REMARKS
WINSLOW        MOSUNNY   62  30  29 W16G25    29.90S
6HR MIN TEMP:  35; 6HR MAX TEMP:  63;

SAINT JOHNS    LGT RAIN  51  29  42 W22       29.91R
6HR MIN TEMP:  39; 6HR MAX TEMP:  54; 6HR PCP: TRACE;

WINDOW ROCK    LGT RAIN  44  32  62 SW12G25   29.91S
6HR MIN TEMP:  29; 6HR MAX TEMP:  45; 6HR PCP: TRACE;

SHOW LOW       CLOUDY    46  28  49 SW16      29.96S
$$

AZZ023-291900-
GREATER PHOENIX AREA

CITY           SKY/WX    TMP DP  RH WIND       PRES   REMARKS
PHOENIX        MOSUNNY   71  39  31 CALM      29.88S
6HR MIN TEMP:  65; 6HR MAX TEMP:  73;

BUCKEYE        SUNNY     72  39  30 S3        29.91F
GLENDALE       MOSUNNY   73  39  29 W8        29.91S
LUKE AFB       SUNNY     72  40  31 S10       29.88S
6HR MIN TEMP:  62; 6HR MAX TEMP:  72;

DEER VALLEY    SUNNY     69  38  32 VRB6      29.89S
6HR MIN TEMP:  62; 6HR MAX TEMP:  70;

SCOTTSDALE     SUNNY     69  38  32 CALM      29.91S
6HR MIN TEMP:  63; 6HR MAX TEMP:  70; 6HR PCP: TRACE;

MESA-GATEWAY   MOSUNNY   70  39  32 CALM      29.91F
CHANDLER       MOSUNNY   72  39  30 SW8       29.90S
$$

AZZ027-028-291900-
SOUTHWEST MARICOPA COUNTY AND PINAL COUNTY

CITY           SKY/WX    TMP DP  RH WIND       PRES   REMARKS
CASA GRANDE    SUNNY     72  36  26 W10       29.92F
6HR MIN TEMP:  55; 6HR MAX TEMP:  72;

GILA BEND      SUNNY     74  37  26 SW8G17    29.89F
6HR MIN TEMP:  56; 6HR MAX TEMP:  74;

$$

AZZ503-504-507>509-291900-
SOUTHEAST ARIZONA

CITY           SKY/WX    TMP DP  RH WIND       PRES   REMARKS
TUCSON         SUNNY     68  32  26 N8        29.96F
6HR MIN TEMP:  50; 6HR MAX TEMP:  68;

DAVIS-MONTHAN  SUNNY     66  34  30 SW8       29.95S
6HR MIN TEMP:  49; 6HR MAX TEMP:  66;

RYAN FIELD     SUNNY     66  32  28 E6        29.96S
NOGALES        SUNNY     64  28  25 VRB6      29.98S
6HR MIN TEMP:  38; 6HR MAX TEMP:  64;

SIERRA VISTA   SUNNY     60  28  30 NW8       29.99F
6HR MIN TEMP:  41; 6HR MAX TEMP:  62;

DOUGLAS        SUNNY     62  26  25 VRB7      29.97F
6HR MIN TEMP:  36; 6HR MAX TEMP:  63;

SAFFORD        MOSUNNY   66  34  30 NW20G25   29.91S
6HR MIN TEMP:  51; 6HR MAX TEMP:  67;

$$

AZZ020-021-025-026-031-291900-
SOUTHWEST ARIZONA

CITY           SKY/WX    TMP DP  RH WIND       PRES   REMARKS
YUMA           MOSUNNY   76  42  29 W8        29.92R
6HR MIN TEMP:  58; 6HR MAX TEMP:  76;

$$

CAZ031-033-041-043-047-048-061-291900-
SOUTHERN CALIFORNIA

CITY           SKY/WX    TMP DP  RH WIND       PRES   REMARKS
DOWNTOWN L.A.  PTSUNNY   66  49  54 VRB3      30.03S
6HR MIN TEMP:  58; 6HR MAX TEMP:  67;

L.A. AIRPORT   PTSUNNY   63  50  62 SW13      30.04S
6HR MIN TEMP:  56; 6HR MAX TEMP:  64;

SAN DIEGO      PTSUNNY   66  47  50 S6        30.06F
6HR MIN TEMP:  59; 6HR MAX TEMP:  67;

BURBANK        MOSUNNY   62  47  57 VRB3      30.02S
6HR MIN TEMP:  52; 6HR MAX TEMP:  63;

ONTARIO        PTSUNNY   61  44  53 VRB5      30.03S
6HR MIN TEMP:  49; 6HR MAX TEMP:  61;

RIVERSIDE      MOSUNNY   64  45  49 VRB6      30.03F
6HR MIN TEMP:  49; 6HR MAX TEMP:  64;

PALM SPRINGS   MOSUNNY   74  42  31 NW12      29.91F
6HR MIN TEMP:  59; 6HR MAX TEMP:  74;

EL CENTRO NAS  MOSUNNY   77  37  23 VRB3      29.92F
6HR MIN TEMP:  58; 6HR MAX TEMP:  77;

IMPERIAL       SUNNY     77  39  25 SW6       29.90F
6HR MIN TEMP:  55; 6HR MAX TEMP:  77;

BLYTHE         SUNNY     77  38  24 CALM      29.90S
6HR MIN TEMP:  55; 6HR MAX TEMP:  78;

NEEDLES        SUNNY     72  48  42 CALM      29.89F
6HR MIN TEMP:  58; 6HR MAX TEMP:  72;

$$

NVZ020-UTZ003-291900-
SOUTHERN NEVADA-UTAH

CITY           SKY/WX    TMP DP  RH WIND       PRES   REMARKS
LAS VEGAS      MOSUNNY   67  38  34 VRB3      29.87F
6HR MIN TEMP:  54; 6HR MAX TEMP:  68;

SALT LAKE CITY PTSUNNY   50  34  54 SE3       29.90S
6HR MIN TEMP:  43; 6HR MAX TEMP:  50; 6HR PCP: TRACE;

$$

NMZ009-TXZ055-291900-
NEW MEXICO-WEST TEXAS

CITY           SKY/WX    TMP DP  RH WIND       PRES   REMARKS
ALBUQUERQUE    LGT RAIN  50  31  48 NW13G31   29.86S
6HR MIN TEMP:  42; 6HR MAX TEMP:  55; 6HR PCP: TRACE;

EL PASO        SUNNY     66  15  14 W13G26    29.88F
6HR MIN TEMP:  58; 6HR MAX TEMP:  67;

$$


........................KEY........................
SKY/WX - SKY CONDITION/WEATHER
TMP    - TEMPERATURE IN FAHRENHEIT
DP     - DEW POINT IN FAHRENHEIT
RH     - RELATIVE HUMIDITY IN PERCENT
WIND   - DIRECTION AND SPEED IN MILES PER HOUR (MPH)
VRB    - VARIABLE WIND DIRECTION
PRES   - MEAN SEA LEVEL PRESSURE IN INCHES OF MERCURY
         F - FALLING PRESSURE   R - RISING PRESSURE
         S - STEADY PRESSURE
VSB    - VISIBILITY IN MILES
HX     - HEAT INDEX IN FAHRENHEIT
WCI    - WIND CHILL INDEX IN FAHRENHEIT
TC     - TEMPERATURE IN CELSIUS WHICH IS ALSO KNOWN AS
         TEMPERATURE IN CENTIGRADE
AFB    - AIR FORCE BASE
         LUKE AFB IS LUKE AIR FORCE BASE
         DAVIS-MONTHAN IS DAVIS-MONTHAN AIR FORCE BASE
NAS    - NAVAL AIR STATION
         EL CENTRO NAS IS EL CENTRO NAVAL AIR STATION
N/A    - NOT AVAILABLE





USA.gov is the U.S. government's official web portal to all federal, state and local government web resources and services.